| time (UTC) | temp F | wind direction | speed MPH | gust MPH | rain 1hr in | rain 24hr in | rain mn in | humidity % | barometer mb |
| 20260506201523 | 60 | 306 | 0.0 | 5.0 | 0.00 | 0.01 | 0.01 | 76 | 1013.8 |
| 20260506200017 | 60 | 10 | 0.0 | 8.0 | 0.00 | 0.01 | 0.01 | 76 | 1014.1 |
| 20260506193113 | 59 | 308 | 1.0 | 3.0 | 0.00 | 0.01 | 0.01 | 80 | 1013.7 |
| 20260506184547 | 57 | 307 | 0.0 | 2.0 | 0.00 | 0.01 | 0.01 | 81 | 1014.0 |
| 20260506163022 | 58 | 36 | 0.0 | 3.0 | 0.01 | 0.01 | 0.01 | 80 | 1013.8 |
| 20260506161522 | 56 | 30 | 1.0 | 4.0 | 0.00 | 0.00 | 0.00 | 85 | 1013.9 |
| 20260506160018 | 55 | 55 | 0.0 | 3.0 | 0.00 | 0.00 | 0.00 | 87 | 1014.2 |
| 20260506154516 | 55 | 345 | 0.0 | 3.0 | 0.00 | 0.00 | 0.00 | 86 | 1014.7 |
| 20260506153015 | 55 | 307 | 2.0 | 5.0 | 0.00 | 0.00 | 0.00 | 83 | 1014.0 |
| 20260506151513 | 55 | 305 | 0.0 | 3.0 | 0.00 | 0.00 | 0.00 | 81 | 1015.7 |
| 20260506150009 | 55 | 340 | 0.0 | 4.0 | 0.00 | 0.00 | 0.00 | 82 | 1014.2 |
| 20260506144523 | 54 | 346 | 0.0 | 7.0 | 0.00 | 0.00 | 0.00 | 82 | 1014.2 |
| 20260506143009 | 54 | 326 | 0.0 | 4.0 | 0.00 | 0.00 | 0.00 | 83 | 1013.9 |
| 20260506141505 | 54 | 313 | 0.0 | 4.0 | 0.00 | 0.00 | 0.00 | 83 | 1013.7 |
| 20260506140003 | 54 | 312 | 0.0 | 5.0 | 0.00 | 0.00 | 0.00 | 83 | 1013.4 |
| 20260506134601 | 54 | 10 | 1.0 | 6.0 | 0.00 | 0.00 | 0.00 | 83 | 1013.3 |
| 20260506133133 | 55 | 345 | 0.0 | 3.0 | 0.00 | 0.00 | 0.00 | 82 | 1013.0 |
| 20260506131556 | 54 | 28 | 1.0 | 7.0 | 0.00 | 0.00 | 0.00 | 81 | 1012.7 |
| 20260506130136 | 55 | 323 | 2.0 | 7.0 | 0.00 | 0.00 | 0.00 | 80 | 1012.9 |
| 20260506124552 | 0 | 0.0 | 0.0 | 0.00 | 0.00 | 0.00 | 1012.4 | ||
| 20260506123048 | 0 | 0.0 | 0.0 | 0.00 | 0.00 | 0.00 | 1012.3 | ||
| 20260506121550 | 0 | 0.0 | 0.0 | 0.00 | 0.00 | 0.00 | 1012.2 | ||
| 20260506120023 | 0 | 0.0 | 0.0 | 0.00 | 0.00 | 0.00 | 1012.0 | ||
| 20260506114517 | 0 | 0.0 | 0.0 | 0.00 | 0.00 | 0.00 | 1011.7 | ||
| 20260506073005 | 61 | 303 | 0.0 | 4.0 | 0.00 | 0.00 | 0.00 | 76 | 1009.4 |
| 20260506071504 | 62 | 316 | 0.0 | 5.0 | 0.00 | 0.00 | 0.00 | 76 | 1009.2 |
| 20260506061556 | 63 | 316 | 0.0 | 3.0 | 0.00 | 0.00 | 0.00 | 76 | 1009.0 |
| 20260506024503 | 74 | 275 | 0.0 | 2.0 | 0.00 | 0.00 | 0.00 | 71 | 1006.7 |
| 20260506023105 | 74 | 332 | 0.0 | 2.0 | 0.00 | 0.00 | 0.00 | 70 | 1006.0 |
| 20260506021604 | 75 | 96 | 0.0 | 3.0 | 0.00 | 0.00 | 0.00 | 70 | 1005.6 |
| 20260506020059 | 76 | 315 | 0.0 | 7.0 | 0.00 | 0.00 | 0.00 | 71 | 1005.4 |
| 20260506014557 | 78 | 245 | 0.0 | 0.0 | 0.00 | 0.00 | 0.00 | 71 | 1005.1 |
| 20260506003031 | 81 | 129 | 0.0 | 0.0 | 0.00 | 0.00 | 0.00 | 74 | 1004.6 |
| 20260506001531 | 82 | 147 | 1.0 | 6.0 | 0.00 | 0.00 | 0.00 | 71 | 1004.4 |
| 20260506000029 | 83 | 202 | 1.0 | 9.0 | 0.00 | 0.00 | 0.00 | 70 | 1003.8 |
| 20260505234529 | 83 | 212 | 4.0 | 10.0 | 0.00 | 0.00 | 0.00 | 69 | 1003.5 |
| 20260505214544 | 90 | 89 | 0.0 | 7.0 | 0.00 | 0.00 | 0.00 | 58 | 1003.3 |
| 20260505213042 | 90 | 163 | 0.0 | 10.0 | 0.00 | 0.00 | 0.00 | 58 | 1003.4 |
| 20260505211541 | 90 | 165 | 3.0 | 11.0 | 0.00 | 0.00 | 0.00 | 57 | 1003.6 |
| 20260505210044 | 90 | 120 | 2.0 | 9.0 | 0.00 | 0.00 | 0.00 | 56 | 1003.6 |
| 20260505204536 | 90 | 99 | 2.0 | 8.0 | 0.00 | 0.00 | 0.00 | 56 | 1004.0 |
| 20260505203037 | 90 | 219 | 0.0 | 11.0 | 0.00 | 0.00 | 0.00 | 56 | 1004.0 |